| time (UTC) | temp F | wind direction | speed MPH | gust MPH | rain 1hr in | rain 24hr in | rain mn in | humidity % | barometer mb |
| 20260508175504 | 67 | 304 | 0.0 | 2.0 | 0.00 | 0.16 | 0.00 | 46 | 1017.0 |
| 20260508175006 | 67 | 338 | 0.0 | 2.0 | 0.00 | 0.16 | 0.00 | 44 | 1017.1 |
| 20260508174533 | 67 | 281 | 0.0 | 2.0 | 0.00 | 0.16 | 0.00 | 42 | 1017.1 |
| 20260508174008 | 67 | 176 | 0.0 | 2.0 | 0.00 | 0.16 | 0.00 | 44 | 1017.2 |
| 20260508173507 | 67 | 209 | 0.0 | 3.0 | 0.00 | 0.16 | 0.00 | 38 | 1017.2 |
| 20260508173021 | 66 | 190 | 0.0 | 3.0 | 0.00 | 0.16 | 0.00 | 41 | 1017.1 |
| 20260508172507 | 66 | 170 | 0.0 | 2.0 | 0.00 | 0.16 | 0.00 | 45 | 1017.1 |
| 20260508172010 | 66 | 159 | 0.0 | 2.0 | 0.00 | 0.16 | 0.00 | 48 | 1017.1 |
| 20260508171506 | 66 | 121 | 0.0 | 2.0 | 0.00 | 0.16 | 0.00 | 50 | 1017.1 |
| 20260508171002 | 66 | 185 | 0.0 | 2.0 | 0.00 | 0.16 | 0.00 | 51 | 1017.1 |
| 20260508170010 | 65 | 82 | 0.0 | 2.0 | 0.00 | 0.16 | 0.00 | 50 | 1017.1 |
| 20260508165503 | 65 | 296 | 0.0 | 2.0 | 0.00 | 0.16 | 0.00 | 49 | 1017.2 |
| 20260508165005 | 65 | 103 | 0.0 | 2.0 | 0.00 | 0.16 | 0.00 | 51 | 1017.3 |
| 20260508164523 | 64 | 38 | 0.0 | 2.0 | 0.00 | 0.16 | 0.00 | 52 | 1017.5 |
| 20260508164007 | 64 | 323 | 1.0 | 2.0 | 0.00 | 0.16 | 0.00 | 50 | 1017.6 |
| 20260508163508 | 64 | 197 | 0.0 | 2.0 | 0.00 | 0.16 | 0.00 | 50 | 1017.7 |
| 20260508163019 | 64 | 165 | 0.0 | 2.0 | 0.00 | 0.16 | 0.00 | 56 | 1017.8 |
| 20260508162508 | 64 | 244 | 0.0 | 3.0 | 0.00 | 0.16 | 0.00 | 52 | 1017.8 |
| 20260508162008 | 64 | 322 | 1.0 | 3.0 | 0.00 | 0.16 | 0.00 | 50 | 1017.8 |
| 20260508161525 | 64 | 71 | 1.0 | 3.0 | 0.00 | 0.16 | 0.00 | 54 | 1017.9 |
| 20260508161009 | 64 | 82 | 0.0 | 2.0 | 0.00 | 0.16 | 0.00 | 49 | 1017.9 |
| 20260508160509 | 64 | 88 | 0.0 | 2.0 | 0.00 | 0.16 | 0.00 | 50 | 1017.9 |
| 20260508160009 | 63 | 79 | 0.0 | 2.0 | 0.00 | 0.16 | 0.00 | 51 | 1018.0 |
| 20260508154513 | 63 | 350 | 0.0 | 2.0 | 0.00 | 0.16 | 0.00 | 52 | 1018.2 |
| 20260508154006 | 63 | 44 | 0.0 | 2.0 | 0.00 | 0.16 | 0.00 | 52 | 1018.3 |
| 20260508153511 | 63 | 74 | 0.0 | 2.0 | 0.00 | 0.16 | 0.00 | 60 | 1018.3 |
| 20260508153018 | 62 | 263 | 0.0 | 3.0 | 0.00 | 0.16 | 0.00 | 53 | 1018.2 |
| 20260508152509 | 63 | 100 | 0.0 | 3.0 | 0.00 | 0.17 | 0.00 | 53 | 1018.3 |
| 20260508152007 | 64 | 86 | 0.0 | 2.0 | 0.00 | 0.17 | 0.00 | 60 | 1018.3 |
| 20260508151524 | 63 | 148 | 0.0 | 2.0 | 0.00 | 0.17 | 0.00 | 61 | 1018.3 |
| 20260508151012 | 62 | 62 | 0.0 | 2.0 | 0.00 | 0.18 | 0.00 | 58 | 1018.3 |
| 20260508150515 | 62 | 346 | 0.0 | 2.0 | 0.00 | 0.20 | 0.00 | 58 | 1018.3 |
| 20260508150025 | 62 | 103 | 1.0 | 2.0 | 0.00 | 0.21 | 0.00 | 55 | 1018.3 |
| 20260508145510 | 62 | 9 | 0.0 | 2.0 | 0.00 | 0.23 | 0.00 | 59 | 1018.3 |
| 20260508145001 | 61 | 108 | 0.0 | 2.0 | 0.00 | 0.25 | 0.00 | 60 | 1018.2 |
| 20260508143016 | 60 | 98 | 1.0 | 2.0 | 0.00 | 0.46 | 0.00 | 65 | 1018.2 |
| 20260508142507 | 60 | 94 | 0.0 | 2.0 | 0.00 | 0.51 | 0.00 | 66 | 1018.1 |
| 20260508142009 | 59 | 55 | 0.0 | 6.0 | 0.00 | 0.55 | 0.00 | 66 | 1018.2 |
| 20260508141520 | 59 | 73 | 1.0 | 6.0 | 0.00 | 0.61 | 0.00 | 65 | 1018.2 |
| 20260508141009 | 59 | 104 | 2.0 | 4.0 | 0.00 | 0.66 | 0.00 | 64 | 1018.1 |
| 20260508140506 | 59 | 90 | 1.0 | 2.0 | 0.00 | 0.71 | 0.00 | 68 | 1018.0 |
| 20260508140024 | 58 | 284 | 0.0 | 3.0 | 0.00 | 0.73 | 0.00 | 72 | 1018.0 |
| 20260508135512 | 58 | 118 | 1.0 | 3.0 | 0.00 | 0.73 | 0.00 | 73 | 1018.0 |
| 20260508135013 | 58 | 94 | 0.0 | 3.0 | 0.00 | 0.73 | 0.00 | 76 | 1018.0 |
| 20260508134525 | 57 | 19 | 0.0 | 3.0 | 0.00 | 0.73 | 0.00 | 74 | 1017.9 |
| 20260508134010 | 57 | 87 | 0.0 | 2.0 | 0.00 | 0.73 | 0.00 | 78 | 1017.9 |
| 20260508133506 | 56 | 230 | 0.0 | 3.0 | 0.00 | 0.73 | 0.00 | 79 | 1017.8 |
| 20260508132008 | 56 | 63 | 1.0 | 2.0 | 0.00 | 0.73 | 0.00 | 86 | 1017.7 |
| 20260508131520 | 56 | 321 | 0.0 | 2.0 | 0.00 | 0.73 | 0.00 | 84 | 1017.8 |
| 20260508131007 | 55 | 269 | 0.0 | 2.0 | 0.00 | 0.73 | 0.00 | 83 | 1017.7 |
| 20260508130508 | 55 | 321 | 0.0 | 2.0 | 0.00 | 0.73 | 0.00 | 87 | 1017.8 |
| 20260508130022 | 54 | 239 | 0.0 | 2.0 | 0.00 | 0.73 | 0.00 | 86 | 1017.8 |
| 20260508125510 | 54 | 92 | 0.0 | 2.0 | 0.00 | 0.73 | 0.00 | 89 | 1017.8 |
| 20260508125012 | 54 | 227 | 0.0 | 2.0 | 0.00 | 0.73 | 0.00 | 90 | 1017.8 |
| 20260508124525 | 54 | 290 | 0.0 | 2.0 | 0.00 | 0.73 | 0.00 | 91 | 1017.7 |
| 20260508124011 | 54 | 280 | 0.0 | 2.0 | 0.00 | 0.73 | 0.00 | 90 | 1017.7 |
| 20260508123510 | 53 | 42 | 0.0 | 2.0 | 0.00 | 0.73 | 0.00 | 92 | 1017.7 |
| 20260508122503 | 53 | 313 | 0.0 | 1.0 | 0.00 | 0.73 | 0.00 | 95 | 1017.5 |
| 20260508122006 | 53 | 308 | 0.0 | 1.0 | 0.00 | 0.73 | 0.00 | 96 | 1017.4 |
| 20260508120507 | 52 | 271 | 0.0 | 0.0 | 0.00 | 0.73 | 0.00 | 97 | 1017.3 |
| 20260508120021 | 52 | 269 | 0.0 | 1.0 | 0.00 | 0.73 | 0.00 | 97 | 1017.3 |
| 20260508115511 | 51 | 264 | 0.0 | 1.0 | 0.00 | 0.73 | 0.00 | 97 | 1017.1 |
| 20260508115008 | 51 | 312 | 0.0 | 0.0 | 0.00 | 0.73 | 0.00 | 97 | 1017.2 |
| 20260508114524 | 51 | 312 | 0.0 | 0.0 | 0.00 | 0.73 | 0.00 | 97 | 1017.2 |
| 20260508114012 | 51 | 312 | 0.0 | 0.0 | 0.00 | 0.73 | 0.00 | 97 | 1017.0 |
| 20260508113510 | 51 | 312 | 0.0 | 0.0 | 0.00 | 0.73 | 0.00 | 97 | 1017.0 |
| 20260508113027 | 51 | 327 | 0.0 | 1.0 | 0.00 | 0.73 | 0.00 | 97 | 1016.8 |
| 20260508112508 | 50 | 327 | 0.0 | 1.0 | 0.00 | 0.73 | 0.00 | 97 | 1016.7 |
| 20260508112010 | 50 | 352 | 0.0 | 1.0 | 0.00 | 0.73 | 0.00 | 97 | 1016.6 |
| 20260508111527 | 50 | 341 | 0.0 | 1.0 | 0.00 | 0.73 | 0.00 | 96 | 1016.5 |
| 20260508111005 | 50 | 11 | 0.0 | 0.0 | 0.00 | 0.73 | 0.00 | 96 | 1016.4 |
| 20260508110505 | 50 | 12 | 0.0 | 0.0 | 0.00 | 0.73 | 0.00 | 96 | 1016.3 |
| 20260508110019 | 50 | 13 | 0.0 | 0.0 | 0.00 | 0.73 | 0.00 | 96 | 1016.3 |
| 20260508105507 | 50 | 13 | 0.0 | 0.0 | 0.00 | 0.73 | 0.00 | 96 | 1016.2 |
| 20260508105010 | 50 | 69 | 0.0 | 0.0 | 0.00 | 0.73 | 0.00 | 96 | 1016.2 |
| 20260508104534 | 50 | 71 | 0.0 | 0.0 | 0.00 | 0.73 | 0.00 | 96 | 1016.2 |
| 20260508104004 | 50 | 38 | 0.0 | 0.0 | 0.00 | 0.74 | 0.00 | 96 | 1016.1 |
| 20260508103504 | 50 | 39 | 0.0 | 0.0 | 0.00 | 0.74 | 0.00 | 96 | 1016.1 |
| 20260508103011 | 50 | 39 | 0.0 | 0.0 | 0.00 | 0.75 | 0.00 | 96 | 1015.9 |
| 20260508102504 | 49 | 39 | 0.0 | 0.0 | 0.00 | 0.75 | 0.00 | 96 | 1015.8 |
| 20260508102005 | 49 | 39 | 0.0 | 0.0 | 0.00 | 0.75 | 0.00 | 96 | 1015.7 |
| 20260508101516 | 49 | 39 | 0.0 | 0.0 | 0.00 | 0.75 | 0.00 | 96 | 1015.5 |
| 20260508101004 | 49 | 39 | 0.0 | 0.0 | 0.00 | 0.76 | 0.00 | 96 | 1015.6 |
| 20260508100505 | 49 | 39 | 0.0 | 0.0 | 0.00 | 0.76 | 0.00 | 96 | 1015.5 |
| 20260508100021 | 50 | 39 | 0.0 | 0.0 | 0.00 | 0.76 | 0.00 | 96 | 1015.4 |
| 20260508095506 | 50 | 39 | 0.0 | 0.0 | 0.00 | 0.77 | 0.00 | 96 | 1015.3 |
| 20260508095006 | 50 | 39 | 0.0 | 0.0 | 0.00 | 0.77 | 0.00 | 96 | 1015.3 |
| 20260508094518 | 50 | 39 | 0.0 | 0.0 | 0.00 | 0.77 | 0.00 | 96 | 1015.2 |
| 20260508094003 | 50 | 39 | 0.0 | 0.0 | 0.00 | 0.77 | 0.00 | 96 | 1015.2 |
| 20260508093504 | 50 | 39 | 0.0 | 0.0 | 0.00 | 0.77 | 0.00 | 96 | 1015.2 |
| 20260508093007 | 50 | 39 | 0.0 | 0.0 | 0.00 | 0.77 | 0.00 | 96 | 1015.2 |
| 20260508092504 | 51 | 39 | 0.0 | 0.0 | 0.00 | 0.77 | 0.00 | 96 | 1015.2 |
| 20260508092005 | 50 | 39 | 0.0 | 0.0 | 0.00 | 0.78 | 0.00 | 96 | 1015.1 |
| 20260508091516 | 51 | 39 | 0.0 | 0.0 | 0.00 | 0.78 | 0.00 | 96 | 1015.1 |
| 20260508091005 | 51 | 39 | 0.0 | 0.0 | 0.00 | 0.78 | 0.00 | 96 | 1015.1 |
| 20260508090505 | 51 | 39 | 0.0 | 0.0 | 0.00 | 0.78 | 0.00 | 96 | 1015.1 |
| 20260508090018 | 51 | 39 | 0.0 | 0.0 | 0.00 | 0.78 | 0.00 | 96 | 1014.9 |
| 20260508085505 | 51 | 39 | 0.0 | 0.0 | 0.00 | 0.78 | 0.00 | 96 | 1014.9 |
| 20260508085008 | 52 | 39 | 0.0 | 0.0 | 0.00 | 0.78 | 0.00 | 96 | 1015.0 |
| 20260508084519 | 52 | 39 | 0.0 | 0.0 | 0.00 | 0.79 | 0.00 | 96 | 1014.9 |
| 20260508084010 | 52 | 39 | 0.0 | 0.0 | 0.00 | 0.80 | 0.00 | 96 | 1014.7 |
| 20260508083509 | 52 | 39 | 0.0 | 0.0 | 0.00 | 0.81 | 0.00 | 96 | 1014.7 |
| 20260508083019 | 52 | 39 | 0.0 | 0.0 | 0.00 | 0.84 | 0.00 | 96 | 1014.7 |
| 20260508082503 | 53 | 39 | 0.0 | 0.0 | 0.00 | 0.85 | 0.00 | 96 | 1014.6 |
| 20260508082003 | 53 | 39 | 0.0 | 0.0 | 0.00 | 0.86 | 0.00 | 96 | 1014.8 |
| 20260508081511 | 53 | 39 | 0.0 | 0.0 | 0.00 | 0.86 | 0.00 | 96 | 1014.7 |
| 20260508081004 | 53 | 39 | 0.0 | 0.0 | 0.00 | 0.87 | 0.00 | 96 | 1014.5 |
| 20260508080505 | 53 | 39 | 0.0 | 0.0 | 0.00 | 0.87 | 0.00 | 96 | 1014.5 |
| 20260508080014 | 53 | 39 | 0.0 | 0.0 | 0.00 | 0.88 | 0.00 | 96 | 1014.4 |
| 20260508075506 | 53 | 39 | 0.0 | 0.0 | 0.00 | 0.88 | 0.00 | 96 | 1014.5 |
| 20260508075007 | 53 | 39 | 0.0 | 0.0 | 0.00 | 0.89 | 0.00 | 96 | 1014.3 |
| 20260508074518 | 53 | 39 | 0.0 | 0.0 | 0.00 | 0.90 | 0.00 | 96 | 1014.3 |
| 20260508074006 | 53 | 39 | 0.0 | 0.0 | 0.00 | 0.91 | 0.00 | 96 | 1014.3 |
| 20260508073510 | 53 | 39 | 0.0 | 0.0 | 0.00 | 0.91 | 0.00 | 96 | 1014.3 |
| 20260508073024 | 53 | 39 | 0.0 | 0.0 | 0.00 | 0.91 | 0.00 | 96 | 1014.2 |
| 20260508072508 | 53 | 39 | 0.0 | 0.0 | 0.00 | 0.92 | 0.00 | 96 | 1014.3 |
| 20260508072010 | 53 | 39 | 0.0 | 0.0 | 0.00 | 0.92 | 0.00 | 96 | 1014.3 |
| 20260508071508 | 53 | 39 | 0.0 | 0.0 | 0.00 | 0.92 | 0.00 | 96 | 1014.2 |
| 20260508071004 | 53 | 39 | 0.0 | 0.0 | 0.00 | 0.92 | 0.00 | 96 | 1014.3 |
| 20260508070508 | 53 | 39 | 0.0 | 0.0 | 0.00 | 0.92 | 0.00 | 96 | 1014.2 |
| 20260508070021 | 53 | 39 | 0.0 | 0.0 | 0.00 | 0.92 | 0.00 | 96 | 1014.2 |
| 20260508065503 | 53 | 39 | 0.0 | 0.0 | 0.00 | 0.92 | 0.00 | 96 | 1014.2 |
| 20260508065007 | 53 | 39 | 0.0 | 0.0 | 0.00 | 0.92 | 0.00 | 96 | 1014.2 |
| 20260508064523 | 53 | 39 | 0.0 | 0.0 | 0.00 | 0.92 | 0.00 | 96 | 1014.2 |
| 20260508064010 | 53 | 39 | 0.0 | 0.0 | 0.00 | 0.92 | 0.00 | 96 | 1014.1 |
| 20260508063508 | 53 | 39 | 0.0 | 0.0 | 0.00 | 0.92 | 0.00 | 96 | 1014.2 |
| 20260508063022 | 52 | 39 | 0.0 | 0.0 | 0.00 | 0.92 | 0.00 | 96 | 1014.2 |
| 20260508062508 | 52 | 39 | 0.0 | 0.0 | 0.00 | 0.93 | 0.00 | 96 | 1014.1 |
| 20260508062009 | 52 | 39 | 0.0 | 0.0 | 0.00 | 0.93 | 0.00 | 96 | 1014.2 |
| 20260508061523 | 52 | 39 | 0.0 | 0.0 | 0.00 | 0.93 | 0.00 | 96 | 1014.2 |
| 20260508061009 | 52 | 39 | 0.0 | 0.0 | 0.00 | 0.93 | 0.00 | 96 | 1014.1 |
| 20260508060512 | 52 | 39 | 0.0 | 0.0 | 0.00 | 0.93 | 0.00 | 96 | 1014.2 |
| 20260508060013 | 52 | 39 | 0.0 | 0.0 | 0.00 | 0.93 | 0.00 | 96 | 1014.2 |
| 20260508055504 | 53 | 39 | 0.0 | 0.0 | 0.00 | 0.93 | 0.00 | 96 | 1014.1 |
| 20260508055004 | 53 | 39 | 0.0 | 0.0 | 0.00 | 0.93 | 0.00 | 96 | 1014.0 |
| 20260508054517 | 53 | 39 | 0.0 | 0.0 | 0.00 | 0.93 | 0.00 | 96 | 1014.0 |
| 20260508054006 | 53 | 39 | 0.0 | 0.0 | 0.00 | 0.93 | 0.00 | 96 | 1014.1 |
| 20260508053507 | 53 | 39 | 0.0 | 0.0 | 0.00 | 0.93 | 0.00 | 96 | 1014.1 |
| 20260508053022 | 53 | 39 | 0.0 | 0.0 | 0.00 | 0.93 | 0.00 | 96 | 1014.1 |
| 20260508052505 | 53 | 39 | 0.0 | 0.0 | 0.00 | 0.93 | 0.00 | 96 | 1014.0 |
| 20260508052007 | 53 | 39 | 0.0 | 0.0 | 0.00 | 0.94 | 0.00 | 96 | 1014.0 |
| 20260508051526 | 53 | 39 | 0.0 | 0.0 | 0.00 | 0.94 | 0.00 | 96 | 1013.9 |
| 20260508051011 | 53 | 39 | 0.0 | 0.0 | 0.00 | 0.95 | 0.00 | 96 | 1013.9 |
| 20260508050509 | 53 | 39 | 0.0 | 0.0 | 0.00 | 1.03 | 0.00 | 96 | 1014.0 |
| 20260508050024 | 53 | 39 | 0.0 | 0.0 | 0.00 | 1.13 | 0.00 | 96 | 1013.9 |
| 20260508045508 | 53 | 39 | 0.0 | 0.0 | 0.00 | 1.16 | 0.00 | 96 | 1013.9 |
| 20260508045008 | 54 | 39 | 0.0 | 0.0 | 0.00 | 1.16 | 0.00 | 96 | 1013.9 |
| 20260508044516 | 54 | 39 | 0.0 | 0.0 | 0.00 | 1.21 | 0.00 | 96 | 1014.0 |
| 20260508044003 | 54 | 39 | 0.0 | 0.0 | 0.00 | 1.28 | 0.00 | 96 | 1013.8 |
| 20260508043505 | 54 | 39 | 0.0 | 0.0 | 0.00 | 1.35 | 0.00 | 96 | 1013.9 |
| 20260508043036 | 54 | 39 | 0.0 | 0.0 | 0.00 | 1.39 | 0.00 | 96 | 1013.9 |
| 20260508042507 | 54 | 39 | 0.0 | 0.0 | 0.00 | 1.41 | 0.00 | 96 | 1013.9 |
| 20260508042007 | 54 | 39 | 0.0 | 0.0 | 0.00 | 1.41 | 0.00 | 96 | 1013.8 |
| 20260508041523 | 54 | 39 | 0.0 | 0.0 | 0.00 | 1.41 | 0.00 | 96 | 1013.8 |
| 20260508041007 | 54 | 39 | 0.0 | 0.0 | 0.00 | 1.41 | 0.00 | 96 | 1013.8 |
| 20260508040510 | 54 | 39 | 0.0 | 0.0 | 0.00 | 1.41 | 0.00 | 96 | 1013.7 |
| 20260508040029 | 54 | 39 | 0.0 | 0.0 | 0.00 | 1.41 | 0.00 | 96 | 1013.8 |
| 20260508035509 | 54 | 42 | 0.0 | 0.0 | 0.00 | 1.41 | 1.41 | 96 | 1013.7 |
| 20260508035009 | 54 | 42 | 0.0 | 0.0 | 0.00 | 1.41 | 1.41 | 96 | 1013.8 |
| 20260508034526 | 54 | 42 | 0.0 | 0.0 | 0.00 | 1.41 | 1.41 | 96 | 1013.5 |
| 20260508034007 | 54 | 42 | 0.0 | 0.0 | 0.00 | 1.41 | 1.41 | 96 | 1013.4 |
| 20260508033510 | 54 | 88 | 0.0 | 0.0 | 0.00 | 1.41 | 1.41 | 96 | 1013.4 |
| 20260508033015 | 54 | 88 | 0.0 | 0.0 | 0.00 | 1.41 | 1.41 | 96 | 1013.2 |
| 20260508032504 | 54 | 88 | 0.0 | 0.0 | 0.00 | 1.41 | 1.41 | 96 | 1013.1 |
| 20260508032006 | 54 | 88 | 0.0 | 0.0 | 0.00 | 1.41 | 1.41 | 96 | 1013.4 |
| 20260508031523 | 54 | 88 | 0.0 | 0.0 | 0.00 | 1.41 | 1.41 | 96 | 1012.9 |
| 20260508031008 | 54 | 88 | 0.0 | 0.0 | 0.00 | 1.41 | 1.41 | 96 | 1012.9 |
| 20260508030507 | 54 | 88 | 0.0 | 0.0 | 0.00 | 1.41 | 1.41 | 96 | 1013.2 |
| 20260508030038 | 54 | 88 | 0.0 | 0.0 | 0.00 | 1.41 | 1.41 | 96 | 1013.1 |
| 20260508025511 | 54 | 88 | 0.0 | 0.0 | 0.00 | 1.41 | 1.41 | 96 | 1012.8 |
| 20260508025003 | 54 | 88 | 0.0 | 0.0 | 0.00 | 1.41 | 1.41 | 96 | 1012.7 |
| 20260508024004 | 54 | 88 | 0.0 | 0.0 | 0.00 | 1.41 | 1.41 | 96 | 1012.7 |
| 20260508023505 | 54 | 88 | 0.0 | 0.0 | 0.01 | 1.41 | 1.41 | 96 | 1012.6 |
| 20260508022504 | 54 | 88 | 0.0 | 0.0 | 0.01 | 1.41 | 1.41 | 96 | 1012.7 |
| 20260508022009 | 54 | 88 | 0.0 | 0.0 | 0.01 | 1.41 | 1.41 | 96 | 1012.6 |
| 20260508021520 | 54 | 88 | 0.0 | 0.0 | 0.01 | 1.41 | 1.41 | 96 | 1012.5 |
| 20260508021009 | 54 | 88 | 0.0 | 0.0 | 0.01 | 1.41 | 1.41 | 96 | 1012.3 |
| 20260508020505 | 54 | 88 | 0.0 | 0.0 | 0.01 | 1.41 | 1.41 | 96 | 1012.2 |
| 20260508020024 | 54 | 88 | 0.0 | 0.0 | 0.01 | 1.41 | 1.41 | 96 | 1012.4 |
| 20260508015507 | 54 | 88 | 0.0 | 0.0 | 0.01 | 1.41 | 1.41 | 96 | 1012.4 |
| 20260508015009 | 53 | 88 | 0.0 | 0.0 | 0.01 | 1.41 | 1.41 | 96 | 1012.5 |
| 20260508014524 | 53 | 88 | 0.0 | 0.0 | 0.01 | 1.41 | 1.41 | 96 | 1012.5 |
| 20260508014011 | 53 | 88 | 0.0 | 0.0 | 0.02 | 1.41 | 1.41 | 96 | 1012.3 |
| 20260508013505 | 53 | 88 | 0.0 | 0.0 | 0.01 | 1.40 | 1.40 | 96 | 1012.3 |
| 20260508013010 | 54 | 88 | 0.0 | 2.0 | 0.04 | 1.40 | 1.40 | 96 | 1012.2 |
| 20260508012503 | 53 | 88 | 0.0 | 2.0 | 0.08 | 1.40 | 1.40 | 95 | 1011.9 |
| 20260508012007 | 53 | 66 | 0.0 | 0.0 | 0.11 | 1.40 | 1.40 | 95 | 1011.5 |
| 20260508011515 | 53 | 57 | 0.0 | 0.0 | 0.14 | 1.40 | 1.40 | 95 | 1011.6 |
| 20260508011007 | 54 | 57 | 0.0 | 0.0 | 0.14 | 1.40 | 1.40 | 95 | 1011.6 |
| 20260508010506 | 53 | 57 | 0.0 | 0.0 | 0.14 | 1.40 | 1.40 | 95 | 1011.6 |
| 20260508005512 | 54 | 57 | 0.0 | 0.0 | 0.14 | 1.40 | 1.40 | 95 | 1011.6 |
| 20260508005008 | 54 | 57 | 0.0 | 0.0 | 0.14 | 1.40 | 1.40 | 95 | 1011.6 |
| 20260508004011 | 54 | 56 | 0.0 | 2.0 | 0.13 | 1.39 | 1.39 | 94 | 1011.8 |
| 20260508003026 | 54 | 102 | 0.0 | 2.0 | 0.10 | 1.36 | 1.36 | 94 | 1011.6 |
| 20260508002507 | 54 | 289 | 0.0 | 0.0 | 0.06 | 1.32 | 1.32 | 93 | 1012.0 |
| 20260508002003 | 54 | 290 | 0.0 | 2.0 | 0.03 | 1.29 | 1.29 | 93 | 1011.9 |
| 20260508001515 | 54 | 290 | 0.0 | 2.0 | 0.00 | 1.26 | 1.26 | 92 | 1011.7 |
| 20260508001003 | 54 | 76 | 0.0 | 2.0 | 0.00 | 1.26 | 1.26 | 91 | 1011.1 |
| 20260508000511 | 54 | 85 | 0.0 | 2.0 | 0.00 | 1.26 | 1.26 | 91 | 1011.0 |
| 20260507235505 | 55 | 98 | 0.0 | 2.0 | 0.00 | 1.26 | 1.26 | 91 | 1010.5 |
| 20260507235008 | 55 | 111 | 0.0 | 2.0 | 0.00 | 1.26 | 1.26 | 91 | 1010.4 |
| 20260507234524 | 55 | 98 | 0.0 | 2.0 | 0.00 | 1.26 | 1.26 | 90 | 1010.4 |
| 20260507234007 | 55 | 80 | 0.0 | 2.0 | 0.00 | 1.26 | 1.26 | 91 | 1010.6 |
| 20260507233508 | 55 | 98 | 0.0 | 1.0 | 0.00 | 1.26 | 1.26 | 91 | 1010.6 |
| 20260507233026 | 55 | 98 | 0.0 | 2.0 | 0.00 | 1.26 | 1.26 | 90 | 1010.7 |
| 20260507232509 | 55 | 92 | 0.0 | 2.0 | 0.00 | 1.26 | 1.26 | 90 | 1010.7 |
| 20260507232010 | 55 | 101 | 0.0 | 2.0 | 0.00 | 1.26 | 1.26 | 90 | 1010.7 |
| 20260507231528 | 55 | 90 | 0.0 | 3.0 | 0.00 | 1.26 | 1.26 | 91 | 1010.8 |
| 20260507231004 | 55 | 94 | 0.0 | 3.0 | 0.00 | 1.26 | 1.26 | 90 | 1010.4 |
| 20260507230511 | 55 | 85 | 0.0 | 3.0 | 0.00 | 1.26 | 1.26 | 90 | 1010.4 |
| 20260507230016 | 55 | 88 | 0.0 | 2.0 | 0.00 | 1.26 | 1.26 | 90 | 1010.4 |
| 20260507225510 | 55 | 84 | 0.0 | 2.0 | 0.00 | 1.26 | 1.26 | 90 | 1010.4 |
| 20260507225004 | 55 | 299 | 0.0 | 2.0 | 0.00 | 1.26 | 1.26 | 90 | 1010.4 |
| 20260507224520 | 55 | 105 | 0.0 | 4.0 | 0.00 | 1.26 | 1.26 | 90 | 1010.2 |
| 20260507224007 | 55 | 106 | 1.0 | 4.0 | 0.00 | 1.26 | 1.26 | 90 | 1010.3 |
| 20260507223508 | 55 | 113 | 1.0 | 4.0 | 0.00 | 1.26 | 1.26 | 90 | 1010.2 |
| 20260507223021 | 55 | 93 | 0.0 | 2.0 | 0.00 | 1.26 | 1.26 | 90 | 1010.2 |
| 20260507222510 | 55 | 80 | 0.0 | 2.0 | 0.00 | 1.26 | 1.26 | 90 | 1010.0 |
| 20260507222011 | 55 | 303 | 1.0 | 3.0 | 0.00 | 1.26 | 1.26 | 91 | 1009.9 |
| 20260507221525 | 55 | 95 | 1.0 | 3.0 | 0.00 | 1.26 | 1.26 | 90 | 1010.1 |
| 20260507221009 | 55 | 109 | 0.0 | 6.0 | 0.00 | 1.26 | 1.26 | 91 | 1010.0 |
| 20260507220510 | 55 | 87 | 1.0 | 6.0 | 0.00 | 1.26 | 1.26 | 91 | 1010.2 |
| 20260507220026 | 54 | 104 | 1.0 | 3.0 | 0.00 | 1.26 | 1.26 | 92 | 1009.9 |
| 20260507215507 | 54 | 107 | 1.0 | 2.0 | 0.00 | 1.26 | 1.26 | 91 | 1010.3 |
| 20260507215005 | 54 | 38 | 0.0 | 3.0 | 0.00 | 1.26 | 1.26 | 92 | 1010.3 |
| 20260507214515 | 54 | 85 | 0.0 | 3.0 | 0.00 | 1.26 | 1.26 | 92 | 1010.2 |
| 20260507214008 | 54 | 106 | 1.0 | 3.0 | 0.00 | 1.26 | 1.26 | 92 | 1009.9 |
| 20260507213507 | 55 | 175 | 0.0 | 3.0 | 0.00 | 1.26 | 1.26 | 93 | 1009.9 |
| 20260507213021 | 55 | 79 | 0.0 | 3.0 | 0.00 | 1.26 | 1.26 | 93 | 1009.8 |
| 20260507212508 | 55 | 71 | 0.0 | 3.0 | 0.00 | 1.26 | 1.26 | 93 | 1009.8 |
| 20260507212010 | 55 | 87 | 0.0 | 2.0 | 0.00 | 1.26 | 1.26 | 93 | 1009.8 |
| 20260507211524 | 55 | 204 | 0.0 | 3.0 | 0.01 | 1.26 | 1.26 | 94 | 1009.6 |
| 20260507211004 | 55 | 96 | 0.0 | 3.0 | 0.01 | 1.26 | 1.26 | 93 | 1009.5 |
| 20260507210507 | 55 | 302 | 0.0 | 3.0 | 0.01 | 1.26 | 1.26 | 94 | 1009.6 |
| 20260507210012 | 55 | 89 | 1.0 | 4.0 | 0.01 | 1.26 | 1.26 | 93 | 1009.4 |
| 20260507205505 | 56 | 77 | 1.0 | 4.0 | 0.01 | 1.26 | 1.26 | 94 | 1009.5 |
| 20260507205009 | 56 | 25 | 1.0 | 3.0 | 0.01 | 1.26 | 1.26 | 94 | 1009.4 |
| 20260507204516 | 56 | 94 | 0.0 | 3.0 | 0.01 | 1.26 | 1.26 | 94 | 1009.2 |
| 20260507204006 | 56 | 77 | 1.0 | 6.0 | 0.01 | 1.26 | 1.26 | 94 | 1009.3 |
| 20260507203507 | 56 | 85 | 1.0 | 6.0 | 0.01 | 1.26 | 1.26 | 94 | 1009.3 |
| 20260507203019 | 56 | 240 | 0.0 | 2.0 | 0.01 | 1.26 | 1.26 | 94 | 1009.1 |
| 20260507202508 | 56 | 73 | 0.0 | 6.0 | 0.01 | 1.26 | 1.26 | 94 | 1009.2 |
| 20260507202009 | 57 | 71 | 0.0 | 6.0 | 0.01 | 1.26 | 1.26 | 94 | 1009.3 |
| 20260507201528 | 57 | 82 | 0.0 | 4.0 | 0.00 | 1.25 | 1.25 | 94 | 1009.2 |
| 20260507201010 | 57 | 94 | 0.0 | 4.0 | 0.00 | 1.25 | 1.25 | 94 | 1009.3 |
| 20260507200510 | 57 | 92 | 0.0 | 4.0 | 0.00 | 1.25 | 1.25 | 94 | 1009.1 |
| 20260507200011 | 57 | 332 | 2.0 | 4.0 | 0.00 | 1.25 | 1.25 | 94 | 1009.3 |
| 20260507195504 | 58 | 302 | 0.0 | 2.0 | 0.00 | 1.25 | 1.25 | 94 | 1009.2 |
| 20260507195005 | 58 | 192 | 0.0 | 2.0 | 0.00 | 1.25 | 1.25 | 94 | 1009.1 |
| 20260507194514 | 58 | 346 | 0.0 | 3.0 | 0.00 | 1.25 | 1.25 | 94 | 1009.2 |
| 20260507194005 | 58 | 130 | 0.0 | 3.0 | 0.00 | 1.25 | 1.25 | 94 | 1009.1 |
| 20260507193506 | 58 | 60 | 0.0 | 6.0 | 0.00 | 1.26 | 1.25 | 94 | 1009.0 |
| 20260507193025 | 58 | 199 | 0.0 | 6.0 | 0.00 | 1.26 | 1.25 | 93 | 1009.1 |
| 20260507192508 | 59 | 54 | 0.0 | 2.0 | 0.00 | 1.26 | 1.25 | 94 | 1009.0 |
| 20260507192008 | 59 | 300 | 0.0 | 2.0 | 0.00 | 1.26 | 1.25 | 94 | 1009.0 |
| 20260507191521 | 59 | 87 | 0.0 | 4.0 | 0.00 | 1.26 | 1.25 | 94 | 1009.0 |
| 20260507191008 | 59 | 315 | 0.0 | 4.0 | 0.00 | 1.26 | 1.25 | 94 | 1009.2 |
| 20260507190508 | 60 | 80 | 0.0 | 2.0 | 0.00 | 1.26 | 1.25 | 94 | 1009.0 |
| 20260507190026 | 60 | 96 | 0.0 | 3.0 | 0.00 | 1.26 | 1.25 | 94 | 1008.7 |
| 20260507185508 | 60 | 21 | 0.0 | 3.0 | 0.00 | 1.26 | 1.25 | 93 | 1008.2 |
| 20260507185010 | 60 | 104 | 1.0 | 2.0 | 0.00 | 1.26 | 1.25 | 93 | 1008.1 |
| 20260507184512 | 61 | 66 | 0.0 | 2.0 | 0.00 | 1.26 | 1.25 | 94 | 1008.6 |
| 20260507184005 | 61 | 89 | 0.0 | 3.0 | 0.00 | 1.26 | 1.25 | 92 | 1008.6 |
| 20260507183506 | 62 | 110 | 1.0 | 5.0 | 0.00 | 1.26 | 1.25 | 92 | 1008.8 |
| 20260507183025 | 63 | 39 | 1.0 | 7.0 | 0.00 | 1.26 | 1.25 | 91 | 1008.9 |
| 20260507182505 | 64 | 309 | 0.0 | 7.0 | 0.00 | 1.26 | 1.25 | 89 | 1008.6 |
| 20260507182007 | 67 | 69 | 1.0 | 3.0 | 0.00 | 1.26 | 1.25 | 85 | 1008.0 |
| 20260507181518 | 71 | 74 | 1.0 | 2.0 | 0.00 | 1.26 | 1.25 | 90 | 1008.1 |
| 20260507181009 | 71 | 171 | 0.0 | 2.0 | 0.00 | 1.26 | 1.25 | 92 | 1008.3 |
| 20260507180507 | 70 | 175 | 0.0 | 1.0 | 0.00 | 1.26 | 1.25 | 93 | 1007.9 |
| 20260507180023 | 70 | 241 | 0.0 | 2.0 | 0.00 | 1.26 | 1.25 | 94 | 1008.2 |